contact:dominique.lefevre@mio.osupytheas.fr, maurice.libes@osupytheas.fr, didier.mallarino@osupytheas.fr
Project:EMSO http://www.emso-fr.org/EMSO-France
Depth: 2436.0 m
Title:EMSO Ligure Ouest : Data MII capteur MICROCAT
DateTime_Computer,Latitude,Longitude,Temperature,Conductivity,Pressure,DateTime_Instrument
DateTime_Computer,Latitude,Longitude,degC,S m-1,dbar,DateTime_Instrument
2023-03-25T00:02:33Z,42.805,6.029,13.3015,4.60079,2470.707,2023-3-25T02:05:18Z
2023-03-25T00:05:36Z,42.805,6.029,13.3018,4.60079,2470.693,2023-3-25T02:08:21Z
2023-03-25T00:08:39Z,42.805,6.029,13.3016,4.60079,2470.67,2023-3-25T02:11:24Z
2023-03-25T00:11:42Z,42.805,6.029,13.3019,4.60079,2470.707,2023-3-25T02:14:27Z
2023-03-25T00:14:45Z,42.805,6.029,13.3012,4.60078,2470.67,2023-3-25T02:17:30Z
2023-03-25T00:17:48Z,42.805,6.029,13.3019,4.60079,2470.646,2023-3-25T02:20:33Z
2023-03-25T00:20:51Z,42.805,6.029,13.3023,4.60079,2470.684,2023-3-25T02:23:36Z
2023-03-25T00:23:54Z,42.805,6.029,13.3018,4.60080,2470.693,2023-3-25T02:26:39Z
2023-03-25T00:26:57Z,42.805,6.029,13.3018,4.60079,2470.693,2023-3-25T02:29:42Z
2023-03-25T00:30:00Z,42.805,6.029,13.3018,4.60079,2470.67,2023-3-25T02:32:45Z
2023-03-25T00:33:03Z,42.805,6.029,13.3014,4.60079,2470.717,2023-3-25T02:35:48Z
2023-03-25T00:36:07Z,42.805,6.029,13.3014,4.60079,2470.67,2023-3-25T02:38:51Z
2023-03-25T00:39:10Z,42.805,6.029,13.3015,4.60079,2470.67,2023-3-25T02:41:55Z
2023-03-25T00:42:13Z,42.805,6.029,13.3016,4.60078,2470.646,2023-3-25T02:44:58Z
2023-03-25T00:45:16Z,42.805,6.029,13.3016,4.60079,2470.67,2023-3-25T02:48:01Z
2023-03-25T00:48:19Z,42.805,6.029,13.3021,4.60080,2470.661,2023-3-25T02:51:04Z
2023-03-25T00:51:22Z,42.805,6.029,13.3019,4.60079,2470.693,2023-3-25T02:54:07Z
2023-03-25T00:54:25Z,42.805,6.029,13.3019,4.60079,2470.67,2023-3-25T02:57:10Z
2023-03-25T00:57:28Z,42.805,6.029,13.3015,4.60080,2470.684,2023-3-25T03:00:13Z
2023-03-25T01:00:31Z,42.805,6.029,13.3014,4.60080,2470.661,2023-3-25T03:03:16Z
2023-03-25T01:03:34Z,42.805,6.029,13.3015,4.60080,2470.661,2023-3-25T03:06:19Z
2023-03-25T01:06:37Z,42.805,6.029,13.3015,4.60080,2470.6,2023-3-25T03:09:22Z
2023-03-25T01:09:40Z,42.805,6.029,13.3019,4.60079,2470.646,2023-3-25T03:12:25Z
2023-03-25T01:12:44Z,42.805,6.029,13.3015,4.60079,2470.646,2023-3-25T03:15:28Z
2023-03-25T01:15:47Z,42.805,6.029,13.3024,4.60079,2470.661,2023-3-25T03:18:32Z
2023-03-25T01:18:50Z,42.805,6.029,13.3016,4.60079,2470.684,2023-3-25T03:21:35Z
2023-03-25T01:21:53Z,42.805,6.029,13.3017,4.60079,2470.646,2023-3-25T03:24:38Z
2023-03-25T01:24:56Z,42.805,6.029,13.3021,4.60079,2470.646,2023-3-25T03:27:41Z
2023-03-25T01:27:59Z,42.805,6.029,13.3019,4.60079,2470.661,2023-3-25T03:30:44Z
2023-03-25T01:31:02Z,42.805,6.029,13.3020,4.60079,2470.684,2023-3-25T03:33:47Z
2023-03-25T01:34:05Z,42.805,6.029,13.3015,4.60079,2470.661,2023-3-25T03:36:50Z
2023-03-25T01:37:08Z,42.805,6.029,13.3018,4.60079,2470.661,2023-3-25T03:39:53Z
2023-03-25T01:40:11Z,42.805,6.029,13.3019,4.60079,2470.646,2023-3-25T03:42:56Z
2023-03-25T01:43:14Z,42.805,6.029,13.3018,4.60079,2470.661,2023-3-25T03:45:59Z
2023-03-25T01:46:17Z,42.805,6.029,13.3014,4.60079,2470.684,2023-3-25T03:49:02Z
2023-03-25T01:49:20Z,42.805,6.029,13.3016,4.60079,2470.624,2023-3-25T03:52:05Z
2023-03-25T01:52:24Z,42.805,6.029,13.3019,4.60080,2470.637,2023-3-25T03:55:09Z
2023-03-25T01:55:27Z,42.805,6.029,13.3017,4.60080,2470.6,2023-3-25T03:58:12Z
2023-03-25T01:58:30Z,42.805,6.029,13.3018,4.60079,2470.624,2023-3-25T04:01:15Z
2023-03-25T02:01:33Z,42.805,6.029,13.3021,4.60080,2470.6,2023-3-25T04:04:18Z
2023-03-25T02:04:36Z,42.805,6.029,13.3014,4.60079,2470.661,2023-3-25T04:07:21Z
2023-03-25T02:07:39Z,42.805,6.029,13.3019,4.60079,2470.614,2023-3-25T04:10:24Z
2023-03-25T02:10:42Z,42.805,6.029,13.3016,4.60079,2470.637,2023-3-25T04:13:27Z
2023-03-25T02:13:45Z,42.805,6.029,13.3016,4.60079,2470.6,2023-3-25T04:16:30Z
2023-03-25T02:16:48Z,42.805,6.029,13.3016,4.60079,2470.614,2023-3-25T04:19:33Z
2023-03-25T02:19:51Z,42.805,6.029,13.3015,4.60080,2470.6,2023-3-25T04:22:36Z
2023-03-25T02:22:54Z,42.805,6.029,13.3019,4.60079,2470.6,2023-3-25T04:25:39Z
2023-03-25T02:25:58Z,42.805,6.029,13.3020,4.60079,2470.61,2023-3-25T04:28:42Z
2023-03-25T02:29:01Z,42.805,6.029,13.3017,4.60080,2470.577,2023-3-25T04:31:46Z
2023-03-25T02:32:04Z,42.805,6.029,13.3018,4.60080,2470.637,2023-3-25T04:34:49Z
2023-03-25T02:35:07Z,42.805,6.029,13.3015,4.60079,2470.6,2023-3-25T04:37:52Z
2023-03-25T02:38:10Z,42.805,6.029,13.3019,4.60079,2470.614,2023-3-25T04:40:55Z
2023-03-25T02:41:13Z,42.805,6.029,13.3019,4.60080,2470.6,2023-3-25T04:43:58Z
2023-03-25T02:44:16Z,42.805,6.029,13.3020,4.60079,2470.614,2023-3-25T04:47:01Z
2023-03-25T02:47:19Z,42.805,6.029,13.3019,4.60079,2470.591,2023-3-25T04:50:04Z
2023-03-25T02:50:22Z,42.805,6.029,13.3018,4.60079,2470.614,2023-3-25T04:53:07Z
2023-03-25T02:53:25Z,42.805,6.029,13.3015,4.60080,2470.6,2023-3-25T04:56:10Z
2023-03-25T02:56:28Z,42.805,6.029,13.3020,4.60080,2470.624,2023-3-25T04:59:13Z
2023-03-25T02:59:31Z,42.805,6.029,13.3019,4.60080,2470.614,2023-3-25T05:02:16Z
2023-03-25T03:02:34Z,42.805,6.029,13.3020,4.60079,2470.553,2023-3-25T05:05:19Z
2023-03-25T03:05:38Z,42.805,6.029,13.3019,4.60080,2470.577,2023-3-25T05:08:23Z
2023-03-25T03:08:41Z,42.805,6.029,13.3019,4.60079,2470.6,2023-3-25T05:11:26Z
2023-03-25T03:11:44Z,42.805,6.029,13.3020,4.60080,2470.6,2023-3-25T05:14:29Z
2023-03-25T03:14:47Z,42.805,6.029,13.3022,4.60079,2470.614,2023-3-25T05:17:32Z
2023-03-25T03:17:50Z,42.805,6.029,13.3019,4.60080,2470.577,2023-3-25T05:20:35Z
2023-03-25T03:20:53Z,42.805,6.029,13.3020,4.60079,2470.577,2023-3-25T05:23:38Z
2023-03-25T03:23:56Z,42.805,6.029,13.3017,4.60080,2470.614,2023-3-25T05:26:41Z
2023-03-25T03:26:59Z,42.805,6.029,13.3019,4.60079,2470.577,2023-3-25T05:29:44Z
2023-03-25T03:30:02Z,42.805,6.029,13.3019,4.60079,2470.577,2023-3-25T05:32:47Z
2023-03-25T03:33:05Z,42.805,6.029,13.3021,4.60080,2470.553,2023-3-25T05:35:50Z
2023-03-25T03:36:08Z,42.805,6.029,13.3020,4.60080,2470.591,2023-3-25T05:38:53Z
2023-03-25T03:39:11Z,42.805,6.029,13.3017,4.60081,2470.614,2023-3-25T05:41:56Z
2023-03-25T03:42:15Z,42.805,6.029,13.3016,4.60080,2470.577,2023-3-25T05:45:00Z
2023-03-25T03:45:18Z,42.805,6.029,13.3015,4.60080,2470.6,2023-3-25T05:48:03Z
2023-03-25T03:48:21Z,42.805,6.029,13.3017,4.60079,2470.577,2023-3-25T05:51:06Z
2023-03-25T03:51:24Z,42.805,6.029,13.3019,4.60080,2470.591,2023-3-25T05:54:09Z
2023-03-25T03:54:27Z,42.805,6.029,13.3020,4.60081,2470.567,2023-3-25T05:57:12Z
2023-03-25T03:57:30Z,42.805,6.029,13.3016,4.60081,2470.577,2023-3-25T06:00:15Z
2023-03-25T04:00:33Z,42.805,6.029,13.3024,4.60081,2470.553,2023-3-25T06:03:18Z
2023-03-25T04:03:36Z,42.805,6.029,13.3020,4.60081,2470.577,2023-3-25T06:06:21Z
2023-03-25T04:06:39Z,42.805,6.029,13.3016,4.60081,2470.577,2023-3-25T06:09:24Z
2023-03-25T04:09:42Z,42.805,6.029,13.3019,4.60081,2470.567,2023-3-25T06:12:27Z
2023-03-25T04:12:45Z,42.805,6.029,13.3021,4.60081,2470.6,2023-3-25T06:15:30Z
2023-03-25T04:15:48Z,42.805,6.029,13.3018,4.60081,2470.591,2023-3-25T06:18:33Z
2023-03-25T04:18:51Z,42.805,6.029,13.3020,4.60081,2470.577,2023-3-25T06:21:36Z
2023-03-25T04:21:55Z,42.805,6.029,13.3022,4.60081,2470.577,2023-3-25T06:24:40Z
2023-03-25T04:24:58Z,42.805,6.029,13.3020,4.60081,2470.591,2023-3-25T06:27:43Z
2023-03-25T04:28:01Z,42.805,6.029,13.3024,4.60081,2470.6,2023-3-25T06:30:46Z
2023-03-25T04:31:04Z,42.805,6.029,13.3022,4.60081,2470.577,2023-3-25T06:33:49Z
2023-03-25T04:34:07Z,42.805,6.029,13.3020,4.60081,2470.553,2023-3-25T06:36:52Z
2023-03-25T04:37:10Z,42.805,6.029,13.3019,4.60081,2470.553,2023-3-25T06:39:55Z
2023-03-25T04:40:13Z,42.805,6.029,13.3019,4.60081,2470.591,2023-3-25T06:42:58Z
2023-03-25T04:43:16Z,42.805,6.029,13.3019,4.60081,2470.577,2023-3-25T06:46:01Z
2023-03-25T04:46:19Z,42.805,6.029,13.3024,4.60082,2470.553,2023-3-25T06:49:04Z
2023-03-25T04:49:22Z,42.805,6.029,13.3019,4.60081,2470.553,2023-3-25T06:52:07Z
2023-03-25T04:52:25Z,42.805,6.029,13.3020,4.60081,2470.6,2023-3-25T06:55:10Z
2023-03-25T04:55:28Z,42.805,6.029,13.3021,4.60081,2470.591,2023-3-25T06:58:13Z
2023-03-25T04:58:31Z,42.805,6.029,13.3024,4.60081,2470.577,2023-3-25T07:01:16Z
2023-03-25T05:01:35Z,42.805,6.029,13.3021,4.60081,2470.6,2023-3-25T07:04:20Z
2023-03-25T05:04:38Z,42.805,6.029,13.3026,4.60082,2470.577,2023-3-25T07:07:23Z
2023-03-25T05:07:41Z,42.805,6.029,13.3024,4.60082,2470.577,2023-3-25T07:10:26Z
2023-03-25T05:10:44Z,42.805,6.029,13.3020,4.60084,2470.591,2023-3-25T07:13:29Z
2023-03-25T05:13:47Z,42.805,6.029,13.3025,4.60082,2470.6,2023-3-25T07:16:32Z
2023-03-25T05:16:50Z,42.805,6.029,13.3020,4.60082,2470.6,2023-3-25T07:19:35Z
2023-03-25T05:19:53Z,42.805,6.029,13.3021,4.60082,2470.614,2023-3-25T07:22:38Z
2023-03-25T05:22:56Z,42.805,6.029,13.3023,4.60082,2470.6,2023-3-25T07:25:41Z
2023-03-25T05:25:59Z,42.805,6.029,13.3021,4.60082,2470.624,2023-3-25T07:28:44Z
2023-03-25T05:29:02Z,42.805,6.029,13.3020,4.60082,2470.624,2023-3-25T07:31:47Z
2023-03-25T05:32:07Z,42.805,6.029,13.3020,4.60082,2470.624,2023-3-25T07:34:52Z
2023-03-25T05:35:10Z,42.805,6.029,13.3023,4.60083,2470.624,2023-3-25T07:37:55Z
2023-03-25T05:38:13Z,42.805,6.029,13.3023,4.60084,2470.637,2023-3-25T07:40:58Z
2023-03-25T05:41:16Z,42.805,6.029,13.3021,4.60083,2470.614,2023-3-25T07:44:01Z
2023-03-25T05:44:19Z,42.805,6.029,13.3024,4.60082,2470.637,2023-3-25T07:47:04Z
2023-03-25T05:47:22Z,42.805,6.029,13.3023,4.60081,2470.624,2023-3-25T07:50:07Z
2023-03-25T05:50:25Z,42.805,6.029,13.3021,4.60081,2470.6,2023-3-25T07:53:10Z
2023-03-25T05:53:28Z,42.805,6.029,13.3021,4.60081,2470.624,2023-3-25T07:56:14Z
2023-03-25T05:56:32Z,42.805,6.029,13.3021,4.60081,2470.614,2023-3-25T07:59:17Z
2023-03-25T05:59:35Z,42.805,6.029,13.3019,4.60081,2470.6,2023-3-25T08:02:20Z
2023-03-25T06:02:38Z,42.805,6.029,13.3023,4.60081,2470.614,2023-3-25T08:05:23Z
2023-03-25T06:05:41Z,42.805,6.029,13.3023,4.60080,2470.624,2023-3-25T08:08:26Z
2023-03-25T06:08:44Z,42.805,6.029,13.3021,4.60080,2470.624,2023-3-25T08:11:29Z
2023-03-25T06:11:47Z,42.805,6.029,13.3021,4.60081,2470.624,2023-3-25T08:14:32Z
2023-03-25T06:14:50Z,42.805,6.029,13.3024,4.60080,2470.624,2023-3-25T08:17:35Z
2023-03-25T06:17:53Z,42.805,6.029,13.3019,4.60081,2470.637,2023-3-25T08:20:38Z
2023-03-25T06:20:56Z,42.805,6.029,13.3020,4.60081,2470.624,2023-3-25T08:23:41Z
2023-03-25T06:23:59Z,42.805,6.029,13.3023,4.60081,2470.67,2023-3-25T08:26:44Z
2023-03-25T06:27:02Z,42.805,6.029,13.3021,4.60081,2470.646,2023-3-25T08:29:47Z
2023-03-25T06:30:06Z,42.805,6.029,13.3021,4.60081,2470.646,2023-3-25T08:32:51Z
2023-03-25T06:33:09Z,42.805,6.029,13.3022,4.60082,2470.67,2023-3-25T08:35:54Z
2023-03-25T06:36:12Z,42.805,6.029,13.3022,4.60081,2470.67,2023-3-25T08:38:57Z
2023-03-25T06:39:15Z,42.805,6.029,13.3022,4.60081,2470.67,2023-3-25T08:42:00Z
2023-03-25T06:42:18Z,42.805,6.029,13.3021,4.60081,2470.684,2023-3-25T08:45:03Z
2023-03-25T06:45:21Z,42.805,6.029,13.3023,4.60081,2470.646,2023-3-25T08:48:06Z
2023-03-25T06:48:24Z,42.805,6.029,13.3021,4.60081,2470.67,2023-3-25T08:51:09Z
2023-03-25T06:51:27Z,42.805,6.029,13.3026,4.60081,2470.693,2023-3-25T08:54:12Z
2023-03-25T06:54:30Z,42.805,6.029,13.3021,4.60081,2470.693,2023-3-25T08:57:15Z
2023-03-25T06:57:33Z,42.805,6.029,13.3023,4.60081,2470.693,2023-3-25T09:00:18Z
2023-03-25T07:00:36Z,42.805,6.029,13.3018,4.60081,2470.717,2023-3-25T09:03:21Z
2023-03-25T07:03:39Z,42.805,6.029,13.3019,4.60081,2470.73,2023-3-25T09:06:24Z
2023-03-25T07:06:42Z,42.805,6.029,13.3023,4.60081,2470.703,2023-3-25T09:09:28Z
2023-03-25T07:09:46Z,42.805,6.029,13.3023,4.60081,2470.693,2023-3-25T09:12:31Z
2023-03-25T07:12:49Z,42.805,6.029,13.3021,4.60082,2470.693,2023-3-25T09:15:34Z
2023-03-25T07:15:52Z,42.805,6.029,13.3021,4.60081,2470.717,2023-3-25T09:18:37Z
2023-03-25T07:18:55Z,42.805,6.029,13.3023,4.60081,2470.717,2023-3-25T09:21:40Z
2023-03-25T07:21:58Z,42.805,6.029,13.3020,4.60082,2470.693,2023-3-25T09:24:43Z
2023-03-25T07:25:01Z,42.805,6.029,13.3015,4.60081,2470.754,2023-3-25T09:27:46Z
2023-03-25T07:28:04Z,42.805,6.029,13.3021,4.60081,2470.717,2023-3-25T09:30:49Z
2023-03-25T07:31:06Z,42.805,6.029,13.3021,4.60081,2470.754,2023-3-25T09:33:51Z
2023-03-25T07:34:09Z,42.805,6.029,13.3019,4.60081,2470.74,2023-3-25T09:36:54Z
2023-03-25T07:37:12Z,42.805,6.029,13.3018,4.60081,2470.73,2023-3-25T09:39:57Z
2023-03-25T07:40:15Z,42.805,6.029,13.3021,4.60082,2470.777,2023-3-25T09:43:00Z
2023-03-25T07:43:18Z,42.805,6.029,13.3019,4.60081,2470.717,2023-3-25T09:46:03Z
2023-03-25T07:46:21Z,42.805,6.029,13.3019,4.60081,2470.74,2023-3-25T09:49:06Z
2023-03-25T07:49:24Z,42.805,6.029,13.3019,4.60083,2470.717,2023-3-25T09:52:09Z
2023-03-25T07:52:27Z,42.805,6.029,13.3023,4.60081,2470.74,2023-3-25T09:55:12Z
2023-03-25T07:55:30Z,42.805,6.029,13.3021,4.60081,2470.74,2023-3-25T09:58:15Z
2023-03-25T07:58:33Z,42.805,6.029,13.3017,4.60081,2470.754,2023-3-25T10:01:18Z
2023-03-25T08:01:36Z,42.805,6.029,13.3021,4.60081,2470.74,2023-3-25T10:04:21Z
2023-03-25T08:04:39Z,42.805,6.029,13.3024,4.60081,2470.763,2023-3-25T10:07:25Z
2023-03-25T08:07:43Z,42.805,6.029,13.3018,4.60081,2470.763,2023-3-25T10:10:28Z
2023-03-25T08:10:46Z,42.805,6.029,13.3024,4.60081,2470.763,2023-3-25T10:13:31Z
2023-03-25T08:13:49Z,42.805,6.029,13.3021,4.60081,2470.74,2023-3-25T10:16:34Z
2023-03-25T08:16:52Z,42.805,6.029,13.3021,4.60081,2470.74,2023-3-25T10:19:37Z
2023-03-25T08:19:55Z,42.805,6.029,13.3019,4.60082,2470.763,2023-3-25T10:22:40Z
2023-03-25T08:22:58Z,42.805,6.029,13.3025,4.60081,2470.763,2023-3-25T10:25:43Z
2023-03-25T08:26:01Z,42.805,6.029,13.3019,4.60081,2470.763,2023-3-25T10:28:46Z
2023-03-25T08:29:04Z,42.805,6.029,13.3020,4.60081,2470.824,2023-3-25T10:31:49Z
2023-03-25T08:32:07Z,42.805,6.029,13.3021,4.60081,2470.8,2023-3-25T10:34:52Z
2023-03-25T08:35:10Z,42.805,6.029,13.3019,4.60081,2470.763,2023-3-25T10:37:55Z
2023-03-25T08:38:13Z,42.805,6.029,13.3021,4.60081,2470.787,2023-3-25T10:40:58Z
2023-03-25T08:41:16Z,42.805,6.029,13.3021,4.60081,2470.8,2023-3-25T10:44:02Z
2023-03-25T08:44:20Z,42.805,6.029,13.3017,4.60081,2470.763,2023-3-25T10:47:05Z
2023-03-25T08:47:23Z,42.805,6.029,13.3021,4.60081,2470.787,2023-3-25T10:50:08Z
2023-03-25T08:50:26Z,42.805,6.029,13.3021,4.60081,2470.81,2023-3-25T10:53:11Z
2023-03-25T08:53:29Z,42.805,6.029,13.3020,4.60081,2470.75,2023-3-25T10:56:14Z
2023-03-25T08:56:32Z,42.805,6.029,13.3019,4.60081,2470.754,2023-3-25T10:59:17Z
2023-03-25T08:59:35Z,42.805,6.029,13.3019,4.60081,2470.763,2023-3-25T11:02:20Z
2023-03-25T09:02:38Z,42.805,6.029,13.3021,4.60081,2470.787,2023-3-25T11:05:23Z
2023-03-25T09:05:41Z,42.805,6.029,13.3024,4.60081,2470.787,2023-3-25T11:08:26Z
2023-03-25T09:08:44Z,42.805,6.029,13.3022,4.60081,2470.777,2023-3-25T11:11:29Z
2023-03-25T09:11:47Z,42.805,6.029,13.3015,4.60081,2470.777,2023-3-25T11:14:32Z
2023-03-25T09:14:50Z,42.805,6.029,13.3021,4.60081,2470.787,2023-3-25T11:17:36Z
2023-03-25T09:17:54Z,42.805,6.029,13.3021,4.60081,2470.74,2023-3-25T11:20:39Z
2023-03-25T09:20:57Z,42.805,6.029,13.3020,4.60082,2470.777,2023-3-25T11:23:42Z
2023-03-25T09:24:00Z,42.805,6.029,13.3020,4.60083,2470.787,2023-3-25T11:26:45Z
2023-03-25T09:27:03Z,42.805,6.029,13.3019,4.60082,2470.777,2023-3-25T11:29:48Z
2023-03-25T09:30:06Z,42.805,6.029,13.3019,4.60081,2470.787,2023-3-25T11:32:51Z
2023-03-25T09:33:09Z,42.805,6.029,13.3020,4.60081,2470.787,2023-3-25T11:35:54Z
2023-03-25T09:36:12Z,42.805,6.029,13.3022,4.60081,2470.787,2023-3-25T11:38:57Z
2023-03-25T09:39:15Z,42.805,6.029,13.3025,4.60082,2470.787,2023-3-25T11:42:00Z
2023-03-25T09:42:18Z,42.805,6.029,13.3020,4.60082,2470.777,2023-3-25T11:45:03Z
2023-03-25T09:45:21Z,42.805,6.029,13.3019,4.60081,2470.777,2023-3-25T11:48:06Z
2023-03-25T09:48:24Z,42.805,6.029,13.3023,4.60082,2470.763,2023-3-25T11:51:10Z
2023-03-25T09:51:28Z,42.805,6.029,13.3021,4.60082,2470.763,2023-3-25T11:54:13Z
2023-03-25T09:54:31Z,42.805,6.029,13.3021,4.60081,2470.8,2023-3-25T11:57:16Z
2023-03-25T09:57:34Z,42.805,6.029,13.3019,4.60081,2470.763,2023-3-25T12:00:19Z
2023-03-25T10:00:37Z,42.805,6.029,13.3019,4.60081,2470.754,2023-3-25T12:03:22Z
2023-03-25T10:03:40Z,42.805,6.029,13.3023,4.60082,2470.754,2023-3-25T12:06:25Z
2023-03-25T10:06:43Z,42.805,6.029,13.3016,4.60084,2470.74,2023-3-25T12:09:28Z
2023-03-25T10:09:46Z,42.805,6.029,13.3019,4.60084,2470.73,2023-3-25T12:12:31Z
2023-03-25T10:12:49Z,42.805,6.029,13.3022,4.60081,2470.763,2023-3-25T12:15:34Z
2023-03-25T10:15:52Z,42.805,6.029,13.3021,4.60081,2470.777,2023-3-25T12:18:37Z
2023-03-25T10:18:55Z,42.805,6.029,13.3022,4.60081,2470.74,2023-3-25T12:21:40Z
2023-03-25T10:21:58Z,42.805,6.029,13.3021,4.60082,2470.74,2023-3-25T12:24:44Z
2023-03-25T10:25:01Z,42.805,6.029,13.3016,4.60081,2470.763,2023-3-25T12:27:47Z
2023-03-25T10:28:05Z,42.805,6.029,13.3021,4.60081,2470.74,2023-3-25T12:30:50Z
2023-03-25T10:31:08Z,42.805,6.029,13.3020,4.60084,2470.74,2023-3-25T12:33:53Z
2023-03-25T10:34:11Z,42.805,6.029,13.3021,4.60082,2470.75,2023-3-25T12:36:56Z
2023-03-25T10:37:14Z,42.805,6.029,13.3021,4.60081,2470.74,2023-3-25T12:39:59Z
2023-03-25T10:40:17Z,42.805,6.029,13.3022,4.60082,2470.763,2023-3-25T12:43:02Z
2023-03-25T10:43:20Z,42.805,6.029,13.3017,4.60081,2470.754,2023-3-25T12:46:05Z
2023-03-25T10:46:23Z,42.805,6.029,13.3021,4.60082,2470.763,2023-3-25T12:49:08Z
2023-03-25T10:49:26Z,42.805,6.029,13.3020,4.60082,2470.74,2023-3-25T12:52:11Z
2023-03-25T10:52:29Z,42.805,6.029,13.3021,4.60081,2470.74,2023-3-25T12:55:14Z
2023-03-25T10:55:32Z,42.805,6.029,13.3021,4.60081,2470.73,2023-3-25T12:58:17Z
2023-03-25T10:58:35Z,42.805,6.029,13.3019,4.60081,2470.754,2023-3-25T13:01:21Z
2023-03-25T11:01:39Z,42.805,6.029,13.3019,4.60082,2470.73,2023-3-25T13:04:24Z
2023-03-25T11:04:42Z,42.805,6.029,13.3019,4.60084,2470.74,2023-3-25T13:07:27Z
2023-03-25T11:07:45Z,42.805,6.029,13.3019,4.60084,2470.717,2023-3-25T13:10:30Z
2023-03-25T11:10:48Z,42.805,6.029,13.3022,4.60082,2470.754,2023-3-25T13:13:33Z
2023-03-25T11:13:51Z,42.805,6.029,13.3019,4.60082,2470.726,2023-3-25T13:16:36Z
2023-03-25T11:16:54Z,42.805,6.029,13.3019,4.60081,2470.717,2023-3-25T13:19:39Z
2023-03-25T11:19:57Z,42.805,6.029,13.3023,4.60081,2470.717,2023-3-25T13:22:42Z
2023-03-25T11:23:00Z,42.805,6.029,13.3019,4.60081,2470.717,2023-3-25T13:25:45Z
2023-03-25T11:26:03Z,42.805,6.029,13.3020,4.60082,2470.763,2023-3-25T13:28:48Z
2023-03-25T11:29:06Z,42.805,6.029,13.3024,4.60082,2470.74,2023-3-25T13:31:51Z
2023-03-25T11:32:09Z,42.805,6.029,13.3015,4.60081,2470.693,2023-3-25T13:34:55Z
2023-03-25T11:35:12Z,42.805,6.029,13.3021,4.60082,2470.717,2023-3-25T13:37:58Z
2023-03-25T11:38:16Z,42.805,6.029,13.3016,4.60081,2470.717,2023-3-25T13:41:01Z
2023-03-25T11:41:19Z,42.805,6.029,13.3019,4.60082,2470.693,2023-3-25T13:44:04Z
2023-03-25T11:44:22Z,42.805,6.029,13.3019,4.60082,2470.693,2023-3-25T13:47:07Z
2023-03-25T11:47:25Z,42.805,6.029,13.3018,4.60082,2470.693,2023-3-25T13:50:10Z
2023-03-25T11:50:28Z,42.805,6.029,13.3023,4.60082,2470.717,2023-3-25T13:53:13Z
2023-03-25T11:53:31Z,42.805,6.029,13.3020,4.60081,2470.693,2023-3-25T13:56:16Z
2023-03-25T11:56:34Z,42.805,6.029,13.3019,4.60081,2470.73,2023-3-25T13:59:19Z
2023-03-25T11:59:37Z,42.805,6.029,13.3021,4.60082,2470.693,2023-3-25T14:02:22Z
2023-03-25T12:02:40Z,42.805,6.029,13.3021,4.60082,2470.693,2023-3-25T14:05:25Z
2023-03-25T12:05:43Z,42.805,6.029,13.3015,4.60081,2470.693,2023-3-25T14:08:29Z
2023-03-25T12:08:46Z,42.805,6.029,13.3019,4.60081,2470.684,2023-3-25T14:11:32Z
2023-03-25T12:11:50Z,42.805,6.029,13.3019,4.60081,2470.67,2023-3-25T14:14:35Z
2023-03-25T12:14:53Z,42.805,6.029,13.3021,4.60081,2470.67,2023-3-25T14:17:38Z
2023-03-25T12:17:56Z,42.805,6.029,13.3019,4.60083,2470.67,2023-3-25T14:20:41Z
2023-03-25T12:20:59Z,42.805,6.029,13.3024,4.60082,2470.707,2023-3-25T14:23:44Z
2023-03-25T12:24:02Z,42.805,6.029,13.3021,4.60084,2470.693,2023-3-25T14:26:47Z
2023-03-25T12:27:05Z,42.805,6.029,13.3019,4.60081,2470.717,2023-3-25T14:29:50Z
2023-03-25T12:30:08Z,42.805,6.029,13.3021,4.60081,2470.707,2023-3-25T14:32:53Z
2023-03-25T12:33:11Z,42.805,6.029,13.3022,4.60081,2470.646,2023-3-25T14:35:56Z
2023-03-25T12:36:14Z,42.805,6.029,13.3017,4.60082,2470.684,2023-3-25T14:38:59Z
2023-03-25T12:39:17Z,42.805,6.029,13.3019,4.60083,2470.67,2023-3-25T14:42:02Z
2023-03-25T12:42:20Z,42.805,6.029,13.3023,4.60081,2470.67,2023-3-25T14:45:06Z
2023-03-25T12:45:23Z,42.805,6.029,13.3019,4.60081,2470.684,2023-3-25T14:48:09Z
2023-03-25T12:48:27Z,42.805,6.029,13.3015,4.60081,2470.67,2023-3-25T14:51:12Z
2023-03-25T12:51:30Z,42.805,6.029,13.3022,4.60081,2470.661,2023-3-25T14:54:15Z
2023-03-25T12:54:33Z,42.805,6.029,13.3022,4.60082,2470.646,2023-3-25T14:57:18Z
2023-03-25T12:57:36Z,42.805,6.029,13.3021,4.60081,2470.693,2023-3-25T15:00:21Z
2023-03-25T13:00:39Z,42.805,6.029,13.3021,4.60081,2470.661,2023-3-25T15:03:24Z
2023-03-25T13:03:42Z,42.805,6.029,13.3021,4.60082,2470.646,2023-3-25T15:06:27Z
2023-03-25T13:06:45Z,42.805,6.029,13.3019,4.60081,2470.646,2023-3-25T15:09:30Z
2023-03-25T13:09:48Z,42.805,6.029,13.3022,4.60081,2470.646,2023-3-25T15:12:33Z
2023-03-25T13:12:51Z,42.805,6.029,13.3021,4.60082,2470.646,2023-3-25T15:15:36Z
2023-03-25T13:15:54Z,42.805,6.029,13.3018,4.60081,2470.646,2023-3-25T15:18:39Z
2023-03-25T13:18:57Z,42.805,6.029,13.3025,4.60081,2470.646,2023-3-25T15:21:43Z
2023-03-25T13:22:00Z,42.805,6.029,13.3022,4.60081,2470.6,2023-3-25T15:24:46Z
2023-03-25T13:25:04Z,42.805,6.029,13.3017,4.60082,2470.624,2023-3-25T15:27:49Z
2023-03-25T13:28:07Z,42.805,6.029,13.3021,4.60082,2470.67,2023-3-25T15:30:52Z
2023-03-25T13:31:10Z,42.805,6.029,13.3023,4.60082,2470.624,2023-3-25T15:33:55Z
2023-03-25T13:34:13Z,42.805,6.029,13.3020,4.60081,2470.637,2023-3-25T15:36:58Z
2023-03-25T13:37:16Z,42.805,6.029,13.3018,4.60082,2470.6,2023-3-25T15:40:01Z
2023-03-25T13:40:19Z,42.805,6.029,13.3022,4.60081,2470.646,2023-3-25T15:43:05Z
2023-03-25T13:43:22Z,42.805,6.029,13.3021,4.60081,2470.61,2023-3-25T15:46:08Z
2023-03-25T13:46:25Z,42.805,6.029,13.3024,4.60081,2470.624,2023-3-25T15:49:11Z
2023-03-25T13:49:29Z,42.805,6.029,13.3016,4.60082,2470.637,2023-3-25T15:52:14Z
2023-03-25T13:52:32Z,42.805,6.029,13.3024,4.60081,2470.624,2023-3-25T15:55:17Z
2023-03-25T13:55:35Z,42.805,6.029,13.3022,4.60081,2470.637,2023-3-25T15:58:20Z
2023-03-25T13:58:38Z,42.805,6.029,13.3021,4.60084,2470.6,2023-3-25T16:01:23Z
2023-03-25T14:01:41Z,42.805,6.029,13.3023,4.60081,2470.614,2023-3-25T16:04:26Z
2023-03-25T14:04:44Z,42.805,6.029,13.3024,4.60082,2470.6,2023-3-25T16:07:29Z
2023-03-25T14:07:47Z,42.805,6.029,13.3017,4.60081,2470.61,2023-3-25T16:10:32Z
2023-03-25T14:10:50Z,42.805,6.029,13.3020,4.60081,2470.614,2023-3-25T16:13:35Z
2023-03-25T14:13:53Z,42.805,6.029,13.3018,4.60081,2470.614,2023-3-25T16:16:38Z
2023-03-25T14:16:56Z,42.805,6.029,13.3017,4.60081,2470.624,2023-3-25T16:19:42Z
2023-03-25T14:19:59Z,42.805,6.029,13.3021,4.60081,2470.624,2023-3-25T16:22:45Z
2023-03-25T14:23:02Z,42.805,6.029,13.3022,4.60082,2470.6,2023-3-25T16:25:48Z
2023-03-25T14:26:06Z,42.805,6.029,13.3022,4.60081,2470.637,2023-3-25T16:28:51Z
2023-03-25T14:29:09Z,42.805,6.029,13.3019,4.60081,2470.577,2023-3-25T16:31:54Z
2023-03-25T14:32:12Z,42.805,6.029,13.3022,4.60081,2470.637,2023-3-25T16:34:57Z
2023-03-25T14:35:15Z,42.805,6.029,13.3022,4.60084,2470.6,2023-3-25T16:38:00Z
2023-03-25T14:38:18Z,42.805,6.029,13.3021,4.60081,2470.6,2023-3-25T16:41:03Z
2023-03-25T14:41:21Z,42.805,6.029,13.3021,4.60081,2470.577,2023-3-25T16:44:06Z
2023-03-25T14:44:24Z,42.805,6.029,13.3019,4.60081,2470.624,2023-3-25T16:47:09Z
2023-03-25T14:47:27Z,42.805,6.029,13.3021,4.60081,2470.614,2023-3-25T16:50:12Z
2023-03-25T14:50:30Z,42.805,6.029,13.3016,4.60081,2470.6,2023-3-25T16:53:15Z
2023-03-25T14:53:33Z,42.805,6.029,13.3017,4.60080,2470.624,2023-3-25T16:56:19Z
2023-03-25T14:56:36Z,42.805,6.029,13.3022,4.60081,2470.577,2023-3-25T16:59:22Z
2023-03-25T14:59:40Z,42.805,6.029,13.3020,4.60081,2470.637,2023-3-25T17:02:25Z
2023-03-25T15:02:43Z,42.805,6.029,13.3016,4.60080,2470.553,2023-3-25T17:05:28Z
2023-03-25T15:05:46Z,42.805,6.029,13.3021,4.60081,2470.577,2023-3-25T17:08:31Z
2023-03-25T15:08:49Z,42.805,6.029,13.3020,4.60081,2470.577,2023-3-25T17:11:34Z
2023-03-25T15:11:52Z,42.805,6.029,13.3024,4.60081,2470.577,2023-3-25T17:14:37Z
2023-03-25T15:14:55Z,42.805,6.029,13.3021,4.60081,2470.6,2023-3-25T17:17:40Z